Terminal Aerodrome Forecast
Issued by NWS Northern Indiana

Home | Current Version | Previous Version | Graphics & Text | Print | Product List | Glossary On
Versions: 1 2 3 4 5 6 7 8 9 10 11 12 13 14
000
FTUS43 KIWX 300500
TAFFWA
TAF
KFWA 300537Z 3006/3106 26004KT 6SM BR SCT070
      TEMPO 3008/3012 3SM BR
     FM301600 29010KT P6SM SCT040 BKN250
     FM302300 28005KT P6SM SCT050=

USA.gov is the U.S. government's official web portal to all federal, state and local government web resources and services.